Location: Montreal
(45.5000°N, 73.5833°W)
Time: 07:48:06
(UTC-04:00)

Tiangong 2 - Pass Details

Date: 14 October 2017
Orbit: 388 x 391 km, 42.8° (Epoch: 23 October)

Event Time Altitude Azimuth Distance (km) Brightness Sun altitude
Exits shadow 04:58:29 29° 117° (ESE) 743 2.9 -23.6°
Drops below altitude 10° 05:00:22 10° 97° (E) 1,421 4.9 -23.3°
Sets 05:02:30 0° 91° (E) 2,278 6.3 -22.9°
